Location: Brno
(49.2000°N, 16.6330°E)
Time: 11:23:15
(UTC+02:00)

Cosmos 2227 - Visible Passes

Search period start: 29 March 2015 00:00
Search period end: 08 April 2015 01:00
Orbit: 833 x 863 km, 71.0° (Epoch: 28 March)

Date Brightness Start Highest point End Pass type
(mag) Time Alt. Az. Time Alt. Az. Time Alt. Az.
29 Mar 6.8 00:49:16 10° NW 00:51:43 12° NNW 00:54:01 10° N visible
29 Mar 6.9 05:23:00 10° N 05:25:58 14° NNE 05:29:03 10° ENE visible
29 Mar 5.6 22:11:18 24° NE 22:11:18 24° NE 22:13:45 10° NE visible
29 Mar 5.4 23:53:10 39° NW 23:53:10 39° NW 23:58:02 10° NNE visible
30 Mar 6.9 01:36:09 10° NW 01:38:39 13° NNW 01:40:59 10° N visible
30 Mar 6.9 05:09:58 10° N 05:12:54 14° NNE 05:15:57 10° ENE visible
30 Mar 5.2 21:57:26 30° ENE 21:57:26 30° ENE 22:00:41 10° NE visible
30 Mar 5.3 23:39:16 40° WNW 23:39:35 40° NW 23:44:59 10° NNE visible
31 Mar 6.9 01:23:02 10° NW 01:25:34 13° NNW 01:27:59 10° N visible
31 Mar 7.0 04:56:56 10° N 04:59:49 14° NNE 05:02:51 10° ENE visible
31 Mar 4.7 21:43:10 38° E 21:43:10 38° E 21:47:37 10° NE visible
31 Mar 5.3 23:24:59 34° W 23:26:32 41° NW 23:31:56 10° NNE visible
01 Apr 6.9 01:09:55 10° NW 01:12:30 13° NNW 01:14:57 10° N visible
01 Apr 7.0 04:43:54 10° N 04:46:45 14° NNE 04:49:45 10° ENE visible
01 Apr 4.6 21:28:05 36° SE 21:29:13 40° ESE 21:34:34 10° NE visible
01 Apr 5.3 23:09:48 19° WSW 23:13:28 41° NW 23:18:54 10° NNE visible
02 Apr 7.0 00:56:48 10° NW 00:59:26 13° NNW 01:01:55 10° N visible
02 Apr 7.1 04:30:51 10° N 04:33:41 14° NNE 04:36:39 10° ENE visible
02 Apr 4.6 21:10:58 10° S 21:16:10 40° ESE 21:21:30 10° NE visible
02 Apr 5.3 22:55:01 10° WSW 23:00:25 41° NW 23:05:51 10° NNE visible
03 Apr 7.0 00:43:41 10° NW 00:46:21 13° NNW 00:48:53 10° N visible
03 Apr 7.1 04:17:49 10° N 04:20:36 14° NNE 04:23:32 10° ENE visible
03 Apr 4.6 20:57:55 10° S 21:03:08 39° ESE 21:08:27 10° NE visible
03 Apr 5.4 22:41:57 10° WSW 22:47:21 42° NW 22:52:48 10° NNE visible
04 Apr 7.1 00:30:35 10° NW 00:33:17 13° NNW 00:35:51 10° N visible
04 Apr 7.1 04:04:47 10° N 04:07:32 14° NNE 04:10:26 10° ENE visible
04 Apr 5.6 05:47:53 10° NNW 05:53:25 44° NE 05:58:55 10° SE visible
04 Apr 4.6 20:44:54 10° S 20:50:05 39° ESE 20:55:23 10° NE visible
04 Apr 5.4 22:28:53 10° WSW 22:34:18 42° NW 22:39:45 10° NNE visible
05 Apr 7.1 00:17:28 10° NW 00:20:13 13° NNW 00:22:49 10° N visible
05 Apr 7.2 03:51:45 10° N 03:54:28 13° NNE 03:57:20 10° ENE visible
05 Apr 5.6 05:34:51 10° NNW 05:40:21 44° NE 05:45:51 10° SE visible
05 Apr 4.7 20:31:52 10° S 20:37:02 38° ESE 20:42:20 10° NE visible
05 Apr 5.4 22:15:49 10° WSW 22:21:14 43° NW 22:26:43 10° NNE visible
06 Apr 7.2 00:04:21 10° WNW 00:07:08 13° NNW 00:09:48 10° N visible
06 Apr 7.2 03:38:43 10° N 03:41:24 13° NNE 03:44:14 10° ENE visible
06 Apr 5.6 05:21:48 10° NNW 05:27:17 43° NE 05:32:47 10° ESE visible
06 Apr 4.7 20:18:50 10° S 20:24:00 38° ESE 20:29:16 10° NE visible
06 Apr 5.4 22:02:44 10° SW 22:08:11 43° NW 22:13:40 10° NNE visible
06 Apr 7.2 23:51:15 10° WNW 23:54:04 13° NNW 23:56:45 10° N visible
07 Apr 7.3 03:25:41 10° N 03:28:20 13° NNE 03:31:07 10° NE visible
07 Apr 5.6 05:08:45 10° NNW 05:14:14 43° NE 05:19:43 10° ESE visible
07 Apr 4.7 20:05:48 10° S 20:10:57 37° ESE 20:16:13 10° NE visible
07 Apr 5.4 21:49:40 10° SW 21:55:07 44° NW 22:00:37 10° NNE visible
07 Apr 7.2 23:38:08 10° WNW 23:41:00 14° NNW 23:43:43 10° N visible
